Regional Weather Roundup
Issued by NWS Portland, ME

Current Version | Previous Version | Text Only | Print | Product List | Glossary Off
Versions: 1 2 3 4 5 6 7 8 9 10 11 12 13 14 15 16 17 18 19 20 21 22 23 24 25 26 27 28 29 30 31 32 33 34 35 36 37 38 39 40 41 42 43 44 45 46 47 48 49 50
000 ASUS41 KGYX 241505 RWRGYX WEATHER ROUNDUP FOR MAINE AND NEW HAMPSHIRE NATIONAL WEATHER SERVICE GRAY ME 1100 AM EDT FRI MAR 24 2017 MEZ002-005-006-010-012-015-018-020-021-024-026-027-029-241600- MAINE CITY SKY/WX TMP DP RH WIND PRES REMARKS PORTLAND CLOUDY 36 19 50 S16G23 30.39F SANFORD HVY SNOW 28 25 86 SW10G16 30.41R VSB 1/4 WCI 19 BAR HARBOR CLOUDY 31 15 52 S17 30.42F WCI 19 WISCASSET LGT SNOW 35 21 56 SW8G18 30.42F ROCKLAND CLOUDY 34 18 52 SW12G18 30.43S FRYEBURG CLOUDY 30 10 43 VRB6 30.35F LEWISTONAUBURN FLURRIES 30 21 69 S10 30.37F AUGUSTA LGT SNOW 29 19 66 S9G24 30.38F WATERVILLE FLURRIES 31 17 56 S6 30.35F BANGOR CLOUDY 30 11 45 S14 30.39F WCI 19 GREENVILLE N/A 25 1 35 S10G21 30.22F WCI 15 MILLINOCKET CLOUDY 25 4 40 S6 30.35F HOULTON CLOUDY 25 4 40 S8 30.31F PRESQUE ISLE CLOUDY 23 6 48 E5 30.28F FRENCHVILLE CLOUDY 18 0 45 SE5 30.21F CARIBOU CLOUDY 22 4 46 SE5 30.26F $$ NHZ002-005-008-009-011-012-014-241600- NEW HAMPSHIRE CITY SKY/WX TMP DP RH WIND PRES REMARKS PORTSMOUTH LGT SNOW 33 14 44 S12G17 30.41S ROCHESTER LGT SNOW 29 20 69 VRB6 30.39R VSB 3/4 NASHUA CLOUDY 34 16 47 SE6 30.39F MANCHESTER CLOUDY 34 13 41 SE8 30.36F CONCORD CLOUDY 31 15 52 SE6 30.36F LACONIA SNOW 28 24 85 VRB7 30.35F VSB 1/2 PLYMOUTH SNOW 24 22 91 E3 30.35F VSB 1/2 BERLIN LGT SNOW 23 13 65 CALM 30.25F VSB 3/4 WHITEFIELD LGT SNOW 26 19 74 NW3 30.25F JAFFREY CLOUDY 34 15 46 S10 30.31F KEENE CLOUDY 33 17 51 S7 30.32F LEBANON CLOUDY 28 25 88 NE9 30.29F MT WASHINGTON SNOW 12 12 100 W55G64 N/A VSB 1/16WCI -15 $$ VTZ005-007-008-241600- VERMONT CITY SKY/WX TMP DP RH WIND PRES REMARKS ST JOHNSBURY N/A 25 22 88 MISG 30.27F MONTPELIER SNOW 24 22 91 S8 30.27F VSB 1/2 BURLINGTON LGT SNOW 30 26 85 S13 30.23F FOG WCI 20 $$ MAZ007-012-024-CTZ003-RIZ002-NYZ038-NYZ072-241600- SOUTHERN NEW ENGLAND AND NY CITY SKY/WX TMP DP RH WIND PRES REMARKS BOSTON CLOUDY 37 24 59 S10 30.42F WORCESTER CLOUDY 34 15 46 SW18G28 30.35S NANTUCKET CLOUDY 39 24 55 S15 30.48F PROVIDENCE CLOUDY 41 27 57 SW18G28 30.42F HARTFORD CLOUDY 38 21 50 S10 30.40R ALBANY LGT SNOW 32 24 72 S15G24 30.28F VSB 3/4 NEW YORK CITY PTSUNNY 46 24 42 SW17G24 30.41F $$ ANZ081-ANZ082-ANZ150-NHZ014-MEZ023>029-241600- COASTAL MARINE OBSERVATIONS STATION/POSITION TIME TEMP WIND PRES WAVE AIR SEA DIR/SP/G HT/PER (UTC) (F) (DEG/KT/KT) (MB) (FT/S) MOUNT DESERT ROC 1500 32 1030.7F MATINICUS ROCK 1400 32 190/ 20/ 21 1030.3F ISLE OF SHOALS 1400 35 180/ 18/ 20 1030.1F JEFFREYS LEDGE 1406 41 N/A 3/ 3 CASHES LEDGE BUO 1350 34 39 1031.5 2/ 3 GEORGES BANK BUO 1350 36 40 1034.6 5/ 7 $$ .............KEY.............. WCI - WIND CHILL TC - TEMPERATURE IN CELSIUS VSB - VISIBILITY IN MILES HX - HEAT INDEX FAIR- INDICATES FEW OR NO CLOUDS BELOW 12,000 FT, WITH NO SIGNIFICANT WEATHER AND/OR OBSTRUCTIONS TO VISIBILITY.

USA.gov is the U.S. government's official web portal to all federal, state and local government web resources and services.